GW4947 Weather Reports


time (UTC)temp
C
wind
direction
speed
KPH
gust
KPH
rain 1hr
cm
rain 24hr
cm
rain mn
cm
humidity
%
barometer
mb
20260504110323 36 90 6.4 9.7 0.00 0.00 0.00 57 1003.0
20260504100322 36 133 1.6 1.6 0.00 0.00 0.00 52 1004.0
20260504081824 38 44 3.2 3.2 0.00 0.00 0.00 49 1006.0
20260504081322 37 127 1.6 1.6 0.00 0.00 0.00 50 1006.0
20260504080822 37 68 1.6 1.6 0.00 0.00 0.00 49 1006.0
20260504080323 37 89 1.6 1.6 0.00 0.00 0.00 50 1006.0
20260504070324 36 220 3.2 3.2 0.00 0.00 0.00 52 1007.0
20260504050322 34 151 3.2 4.8 0.00 0.00 0.00 55 1009.0
20260504045822 33 135 1.6 1.6 0.00 0.00 0.00 54 1009.0
20260504045322 33 65 1.6 3.2 0.00 0.00 0.00 55 1009.0
20260504044822 33 119 1.6 1.6 0.00 0.00 0.00 54 1009.0
20260504044322 33 121 1.6 1.6 0.00 0.00 0.00 55 1009.0
20260504043822 33 94 1.6 1.6 0.00 0.00 0.00 56 1009.0
20260504043322 33 139 1.6 1.6 0.00 0.00 0.00 55 1009.0
20260504042822 33 69 3.2 3.2 0.00 0.00 0.00 56 1009.0
20260504042322 32 329 3.2 3.2 0.00 0.00 0.00 56 1009.0
20260504041822 32 30 4.8 4.8 0.00 0.00 0.00 57 1009.0
20260504041322 32 136 1.6 1.6 0.00 0.00 0.00 57 1009.0
20260504040822 32 269 1.6 3.2 0.00 0.00 0.00 58 1009.0
20260504040323 32 54 1.6 3.2 0.00 0.00 0.00 57 1009.0
20260504035823 32 103 1.6 1.6 0.00 0.00 0.00 60 1009.0
20260504035322 32 68 3.2 4.8 0.00 0.00 0.00 59 1009.0
20260504034822 31 133 1.6 1.6 0.00 0.00 0.00 61 1009.0
20260504034322 31 125 3.2 4.8 0.00 0.00 0.00 60 1009.0
20260504033822 31 140 0.0 0.0 0.00 0.00 0.00 60 1009.0
20260504033323 31 149 3.2 3.2 0.00 0.00 0.00 61 1009.0
20260504032823 31 123 1.6 1.6 0.00 0.00 0.00 63 1009.0
20260504032323 31 192 3.2 4.8 0.00 0.00 0.00 62 1009.0
20260504031822 31 193 4.8 4.8 0.00 0.00 0.00 62 1009.0
20260504031322 30 88 1.6 3.2 0.00 0.00 0.00 63 1009.0
20260504030823 30 123 0.0 0.0 0.00 0.00 0.00 63 1009.0
20260504030323 30 93 1.6 1.6 0.00 0.00 0.00 63 1009.0
20260504025823 30 126 0.0 1.6 0.00 0.00 0.00 63 1009.0
20260504025322 30 125 0.0 0.0 0.00 0.00 0.00 64 1009.0
20260504024823 30 125 1.6 1.6 0.00 0.00 0.00 64 1009.0
20260504024322 29 117 0.0 1.6 0.00 0.00 0.00 65 1008.0
20260504023822 29 166 1.6 1.6 0.00 0.00 0.00 65 1009.0
20260504023322 28 31 1.6 1.6 0.00 0.00 0.00 66 1008.0
20260504022822 29 115 1.6 3.2 0.00 0.00 0.00 67 1008.0
20260504022322 29 209 3.2 3.2 0.00 0.00 0.00 66 1008.0
20260504021823 29 126 0.0 0.0 0.00 0.00 0.00 66 1008.0
20260504021322 28 127 0.0 0.0 0.00 0.00 0.00 68 1008.0
20260504020822 28 136 1.6 3.2 0.00 0.00 0.00 69 1008.0
20260504020323 28 126 0.0 1.6 0.00 0.00 0.00 68 1008.0
20260504015822 28 121 0.0 0.0 0.00 0.00 0.00 68 1008.0
20260504015322 28 130 1.6 1.6 0.00 0.00 0.00 68 1008.0
20260504014822 27 124 0.0 0.0 0.00 0.00 0.00 69 1008.0
20260504014323 27 133 0.0 0.0 0.00 0.00 0.00 70 1008.0
20260504013823 27 125 0.0 1.6 0.00 0.00 0.00 72 1007.0
20260504013323 27 126 0.0 0.0 0.00 0.00 0.00 74 1007.0
20260504012822 27 119 0.0 0.0 0.00 0.00 0.00 74 1008.0
20260504012322 27 119 0.0 0.0 0.00 0.00 0.00 75 1007.0
20260504011822 26 114 0.0 0.0 0.00 0.00 0.00 76 1007.0
20260504011322 26 108 0.0 1.6 0.00 0.00 0.00 77 1007.0
20260504010824 26 119 0.0 0.0 0.00 0.00 0.00 78 1007.0
20260504010323 26 105 0.0 0.0 0.00 0.00 0.00 79 1007.0
20260504005823 26 106 1.6 1.6 0.00 0.00 0.00 79 1007.0
20260504005324 25 117 0.0 0.0 0.00 0.00 0.00 80 1007.0
20260504004822 25 123 0.0 0.0 0.00 0.00 0.00 80 1007.0
20260504004322 25 123 0.0 0.0 0.00 0.00 0.00 80 1007.0
20260504003822 26 125 0.0 1.6 0.00 0.00 0.00 79 1007.0
20260504003323 26 132 1.6 1.6 0.00 0.00 0.00 78 1007.0
20260504002822 26 109 1.6 1.6 0.00 0.00 0.00 76 1007.0
20260504002323 26 119 0.0 0.0 0.00 0.00 0.00 76 1007.0
20260504001823 26 117 0.0 1.6 0.00 0.00 0.00 75 1007.0
20260504001322 26 95 0.0 0.0 0.00 0.00 0.00 75 1007.0
20260504000823 26 122 0.0 0.0 0.00 0.00 0.00 73 1007.0
20260504000322 26 137 0.0 1.6 0.00 0.00 0.00 74 1007.0
20260503235822 26 121 1.6 1.6 0.00 0.00 0.00 75 1007.0
20260503235322 26 125 0.0 0.0 0.00 0.00 0.00 74 1007.0
20260503234822 26 123 0.0 0.0 0.00 0.00 0.00 74 1007.0
20260503234325 26 132 0.0 1.6 0.00 0.00 0.00 74 1007.0
20260503233822 26 131 0.0 0.0 0.00 0.00 0.00 74 1007.0
20260503233322 26 125 0.0 1.6 0.00 0.00 0.00 72 1006.0
20260503232822 26 131 1.6 1.6 0.00 0.00 0.00 72 1006.0
20260503232323 26 117 0.0 0.0 0.00 0.00 0.00 72 1006.0
20260503231823 26 137 0.0 0.0 0.00 0.00 0.00 72 1006.0
20260503231323 26 116 1.6 1.6 0.00 0.00 0.00 72 1006.0
20260503230822 26 116 0.0 0.0 0.00 0.00 0.00 73 1006.0
20260503230322 26 127 0.0 0.0 0.00 0.00 0.00 73 1006.0
20260503225822 26 122 0.0 0.0 0.00 0.00 0.00 73 1006.0
20260503225323 26 118 0.0 0.0 0.00 0.00 0.00 74 1006.0
20260503224823 26 144 1.6 1.6 0.00 0.00 0.00 73 1006.0
20260503224322 26 136 1.6 3.2 0.00 0.00 0.00 74 1006.0
20260503223822 26 79 1.6 3.2 0.00 0.00 0.00 74 1005.0
20260503223323 26 82 3.2 3.2 0.00 0.00 0.00 74 1005.0
20260503222822 26 119 0.0 0.0 0.00 0.00 0.00 74 1005.0
20260503222322 26 149 0.0 1.6 0.00 0.00 0.00 74 1005.0
20260503221822 26 137 0.0 0.0 0.00 0.00 0.00 74 1005.0
20260503221323 26 164 3.2 3.2 0.00 0.00 0.00 73 1005.0
20260503220823 26 136 3.2 3.2 0.00 0.00 0.00 75 1005.0
20260503220322 26 111 0.0 0.0 0.00 0.00 0.00 75 1005.0
20260503215823 26 139 1.6 1.6 0.00 0.00 0.00 76 1005.0
20260503215323 27 111 1.6 1.6 0.00 0.00 0.00 77 1005.0
20260503214823 27 134 0.0 1.6 0.00 0.00 0.00 77 1005.0
20260503214326 27 109 1.6 1.6 0.00 0.00 0.00 77 1005.0
20260503213822 27 177 1.6 3.2 0.00 0.00 0.00 78 1005.0
20260503213323 27 147 1.6 1.6 0.00 0.00 0.00 84 1005.0
20260503212822 28 160 4.8 4.8 0.00 0.00 0.00 87 1005.0
20260503212323 28 129 1.6 1.6 0.00 0.00 0.00 88 1005.0
20260503211824 28 135 1.6 1.6 0.00 0.00 0.00 87 1005.0
20260503211322 28 139 1.6 1.6 0.00 0.00 0.00 87 1005.0
20260503210822 28 148 1.6 3.2 0.00 0.00 0.00 87 1005.0
20260503210322 28 150 1.6 3.2 0.00 0.00 0.00 87 1005.0
20260503205822 28 147 3.2 3.2 0.00 0.00 0.00 87 1006.0
20260503205323 28 156 4.8 4.8 0.00 0.00 0.00 87 1006.0
20260503204822 28 124 1.6 1.6 0.00 0.00 0.00 87 1006.0
20260503204322 28 124 1.6 3.2 0.00 0.00 0.00 87 1006.0
20260503203822 28 124 0.0 1.6 0.00 0.00 0.00 86 1006.0
20260503203322 28 122 4.8 4.8 0.00 0.00 0.00 87 1006.0
20260503202822 28 140 1.6 1.6 0.00 0.00 0.00 86 1006.0
20260503202322 28 160 1.6 3.2 0.00 0.00 0.00 86 1006.0
20260503201822 28 138 1.6 1.6 0.00 0.00 0.00 86 1006.0
20260503201323 28 172 4.8 4.8 0.00 0.00 0.00 86 1007.0
20260503200822 28 142 1.6 1.6 0.00 0.00 0.00 86 1006.0
20260503200322 28 128 0.0 1.6 0.00 0.00 0.00 86 1007.0
20260503195824 28 124 0.0 1.6 0.00 0.00 0.00 86 1007.0
20260503195322 28 124 0.0 0.0 0.00 0.00 0.00 86 1007.0
20260503194822 28 126 0.0 0.0 0.00 0.00 0.00 87 1007.0
20260503194322 28 144 1.6 1.6 0.00 0.00 0.00 87 1007.0
20260503193822 28 148 1.6 1.6 0.00 0.00 0.00 86 1007.0
20260503193322 29 127 0.0 0.0 0.00 0.00 0.00 85 1007.0
20260503192823 29 121 0.0 0.0 0.00 0.00 0.00 85 1007.0
20260503192322 29 127 0.0 0.0 0.00 0.00 0.00 85 1007.0
20260503191822 29 131 0.0 0.0 0.00 0.00 0.00 84 1007.0
20260503191323 30 133 1.6 1.6 0.00 0.00 0.00 84 1008.0
20260503190822 30 116 0.0 0.0 0.00 0.00 0.00 82 1007.0
20260503190322 30 125 0.0 0.0 0.00 0.00 0.00 80 1008.0
20260503185822 31 124 0.0 0.0 0.00 0.00 0.00 78 1008.0
20260503185323 30 128 0.0 0.0 0.00 0.00 0.00 79 1008.0
20260503184823 30 121 0.0 1.6 0.00 0.00 0.00 79 1008.0
20260503184322 30 116 0.0 1.6 0.00 0.00 0.00 81 1008.0
20260503183822 30 97 1.6 1.6 0.00 0.00 0.00 80 1008.0
20260503183323 30 161 1.6 1.6 0.00 0.00 0.00 81 1008.0
20260503182823 30 123 1.6 1.6 0.00 0.00 0.00 81 1008.0
20260503182322 30 115 0.0 0.0 0.00 0.00 0.00 83 1008.0
20260503181823 30 237 1.6 3.2 0.00 0.00 0.00 83 1008.0
20260503181323 30 253 4.8 4.8 0.00 0.00 0.00 83 1008.0
20260503180822 30 114 1.6 1.6 0.00 0.00 0.00 82 1009.0
20260503180322 30 110 1.6 1.6 0.00 0.00 0.00 82 1009.0
20260503175822 30 125 0.0 0.0 0.00 0.00 0.00 80 1009.0
20260503175322 30 117 0.0 0.0 0.00 0.00 0.00 82 1009.0
20260503174823 30 121 0.0 0.0 0.00 0.00 0.00 81 1009.0
20260503174322 30 139 0.0 0.0 0.00 0.00 0.00 80 1009.0
20260503173822 30 125 0.0 0.0 0.00 0.00 0.00 80 1009.0
20260503173325 30 129 0.0 0.0 0.00 0.00 0.00 81 1009.0
20260503172822 31 132 0.0 0.0 0.00 0.00 0.00 79 1009.0
20260503172323 31 125 0.0 0.0 0.00 0.00 0.00 78 1009.0
20260503171823 30 123 0.0 0.0 0.00 0.00 0.00 81 1009.0
20260503171322 30 125 0.0 0.0 0.00 0.00 0.00 81 1008.0
20260503170822 30 124 0.0 0.0 0.00 0.00 0.00 80 1009.0
20260503170322 30 125 0.0 0.0 0.00 0.00 0.00 79 1009.0
20260503150822 30 134 3.2 4.8 0.00 0.00 0.00 78 1007.0
20260503150322 30 146 3.2 3.2 0.00 0.00 0.00 78 1006.0
20260503131322 32 141 3.2 4.8 0.00 0.00 0.00 69 1004.0
20260503130822 32 88 4.8 12.9 0.00 0.00 0.00 67 1004.0
20260503130322 32 129 4.8 8.0 0.00 0.00 0.00 65 1004.0